Location: McFarlands Corners
(41.4117°N, 81.3382°W)
Time: 08:55:56
(UTC+00:00)

Vanguard 2 - All Passes

Search period start: 07 November 2024 00:00
Search period end: 17 November 2024 00:00
Orbit: 551 x 2910 km, 32.9° (Epoch: 06 November)

Date Brightness Start Highest point End Pass type
(mag) Time Alt. Az. Time Alt. Az. Time Alt. Az.
07 Nov - 14:52:07 10° SSW 14:59:44 36° SSE 15:11:19 10° E daylight
07 Nov - 16:58:25 10° WSW 17:08:46 58° S 17:24:34 10° E daylight
07 Nov - 19:06:40 10° W 19:19:35 57° SSW 19:36:35 10° ESE daylight
07 Nov - 21:16:47 10° W 21:30:34 37° SSW 21:45:40 10° SSE daylight
07 Nov - 23:32:29 10° WSW 23:40:17 15° SW 23:47:57 10° SSW visible
08 Nov - 13:02:37 10° SSE 13:05:58 13° SE 13:09:58 10° ESE daylight
08 Nov - 15:05:14 10° SW 15:13:02 41° SSE 15:25:14 10° E daylight
08 Nov - 17:11:58 10° WSW 17:22:22 59° S 17:38:15 10° ESE daylight
08 Nov - 19:20:23 10° W 19:33:11 52° SSW 19:49:54 10° SE daylight
08 Nov - 21:30:57 10° W 21:43:56 32° SSW 21:58:05 10° SSE daylight
09 Nov - 13:14:22 10° S 13:19:00 18° SE 13:25:06 10° E daylight
09 Nov - 15:18:30 10° SW 15:26:25 46° SSE 15:39:05 10° E daylight
09 Nov - 17:25:33 10° WSW 17:36:00 59° S 17:51:53 10° ESE daylight
09 Nov - 19:34:09 10° W 19:46:45 47° SSW 20:03:02 10° SE daylight
09 Nov - 21:45:24 10° W 21:57:15 26° SW 22:10:04 10° S daylight
10 Nov - 13:26:50 10° SSW 13:32:06 23° SE 13:39:33 10° E daylight
10 Nov - 15:31:53 10° WSW 15:39:53 50° SSE 15:52:51 10° E daylight
10 Nov - 17:39:09 10° W 17:49:37 57° S 18:05:26 10° ESE daylight
10 Nov - 19:48:00 10° W 20:00:17 42° SSW 20:15:58 10° SE daylight
10 Nov - 22:00:21 10° WSW 22:10:33 20° SW 22:21:29 10° S daylight
11 Nov - 13:39:39 10° SSW 13:45:18 28° SSE 13:53:40 10° E daylight
11 Nov - 15:45:20 10° WSW 15:53:24 53° S 16:06:35 10° E daylight
11 Nov - 17:52:49 10° W 18:03:14 53° S 18:18:52 10° ESE daylight
11 Nov - 20:01:57 10° W 20:13:47 36° SSW 20:28:39 10° SSE daylight
11 Nov - 22:16:18 10° WSW 22:23:51 15° SW 22:31:48 10° SSW visible
12 Nov - 13:52:42 10° SW 13:58:34 34° SSE 14:07:37 10° E daylight
12 Nov - 15:58:50 10° WSW 16:06:58 54° S 16:20:15 10° ESE daylight
12 Nov - 18:06:29 10° W 18:16:51 49° SSW 18:32:09 10° SE daylight
12 Nov - 20:16:06 10° W 20:27:15 30° SSW 20:40:59 10° SSE daylight
13 Nov - 12:03:05 10° SSE 12:05:07 12° SE 12:07:25 10° ESE daylight
13 Nov - 14:05:55 10° SW 14:11:56 39° SSE 14:21:27 10° E daylight
13 Nov - 16:12:24 10° WSW 16:20:33 54° S 16:33:52 10° ESE daylight
13 Nov - 18:20:14 10° W 18:30:26 44° SSW 18:45:16 10° SE daylight
13 Nov - 20:30:33 10° W 20:40:42 24° SSW 20:52:53 10° SSE daylight
14 Nov - 12:14:53 10° S 12:18:14 16° SE 12:22:29 10° ESE daylight
14 Nov - 14:19:14 10° SW 14:25:21 43° SSE 14:35:13 10° E daylight
14 Nov - 16:25:59 10° WSW 16:34:09 52° S 16:47:23 10° ESE daylight
14 Nov - 18:34:04 10° W 18:44:01 38° SSW 18:58:10 10° SE daylight
14 Nov - 20:45:33 10° WSW 20:54:09 19° SW 21:04:07 10° S daylight
15 Nov - 12:27:28 10° SSW 12:31:26 21° SSE 12:36:48 10° ESE daylight
15 Nov - 14:32:39 10° WSW 14:38:50 46° SSE 14:48:55 10° E daylight
15 Nov - 16:39:36 10° W 16:47:45 48° S 17:00:48 10° ESE daylight
15 Nov - 18:48:02 10° W 18:57:35 32° SSW 19:10:46 10° SSE daylight
15 Nov - 21:01:44 10° WSW 21:07:35 13° SW 21:14:01 10° SSW daylight
16 Nov - 12:40:24 10° SSW 12:44:43 26° SSE 12:50:49 10° E daylight
16 Nov - 14:46:09 10° WSW 14:52:22 47° S 15:02:34 10° ESE daylight
16 Nov - 16:53:16 10° W 17:01:21 44° SSW 17:14:03 10° SE daylight
16 Nov - 19:02:12 10° WSW 19:11:08 26° SSW 19:23:00 10° SSE daylight
